Temp
61 60 60 60 60 60 60 60 61 61 61 61 61 62 62 62 63 57 51 57 61 67 64 57 58 56 55 51 50 49 40 36 37 39 41 45 44 48 49 47 49 51 51 54 57
61 61 60 59 59 59 60 60 60 60 60 61 61 62 62 62 55 53 62 67 67 66 57 55 53 54 48 48 47 43 37 38 41 42 41 44 44 45 46 44 46 47 52 54 54
61 60 60 59 59 59 59 60 60 60 60 60 61 61 62 58 53 52 65 66 66 63 56 56 54 53 46 46 44 42 37 41 43 45 45 44 44 46 44 42 45 43 47 51 52
60 60 60 59 58 59 59 59 60 60 60 60 61 61 61 53 45 54 64 64 65 60 57 55 52 46 42 41 44 40 43 44 46 46 45 43 46 44 44 46 48 47 50 52 50
60 60 60 59 58 58 59 59 59 60 60 60 61 61 55 50 48 59 62 61 58 57 52 52 49 45 41 44 44 41 42 46 46 46 45 46 42 43 44 47 46 48 52 51 49
60 60 58 58 57 58 58 59 59 59 60 60 61 61 51 46 56 57 56 58 56 55 51 51 50 49 44 42 42 43 43 44 45 45 46 43 42 44 45 45 46 47 48 49 48
59 59 58 58 57 58 58 58 59 59 59 60 62 56 51 47 55 56 57 54 55 54 51 51 52 50 47 42 45 44 40 41 42 44 43 44 40 40 44 44 43 44 46 48 50
59 59 59 58 57 57 58 58 58 59 60 61 62 51 45 56 54 56 56 55 57 57 55 53 53 48 46 45 42 39 37 35 41 42 43 43 38 42 43 42 41 43 45 47 48
58 58 58 58 57 57 57 58 58 59 60 61 51 48 44 59 53 54 54 52 53 55 55 58 51 44 44 37 32 32 29 30 37 41 41 40 38 42 43 41 40 40 42 43 45
58 58 58 58 57 57 57 58 57 57 57 57 55 47 48 46 51 52 53 53 52 52 51 49 42 38 35 31 28 29 28 32 33 39 39 37 38 41 42 41 39 39 40 41 42
58 58 58 58 57 57 51 48 48 46 49 43 43 44 46 51 52 52 52 51 51 48 40 41 36 29 30 32 33 28 27 26 34 39 36 35 34 39 41 40 39 38 38 39 40
58 58 58 58 57 56 49 47 45 47 41 45 46 46 48 48 45 49 52 47 46 39 40 37 31 35 36 36 35 32 29 26 33 37 35 29 34 39 40 40 39 38 38 38 39
57 58 58 57 57 50 47 48 49 48 43 42 45 45 46 48 43 44 48 46 42 39 35 34 35 38 37 35 36 34 33 31 31 35 36 33 32 33 40 40 40 41 39 39 37
56 56 57 57 49 46 46 50 50 51 33 39 40 44 46 46 41 48 47 45 41 36 35 35 37 37 36 35 36 34 36 35 35 32 27 32 24 30 36 37 39 40 39 37 37
56 56 57 57 46 45 49 49 48 50 28 40 39 48 45 43 43 43 47 46 38 36 37 33 34 35 35 36 37 35 37 35 35 32 29 31 29 32 33 35 39 39 39 38 38
56 56 56 50 48 49 49 49 49 35 26 33 38 39 39 39 39 43 43 46 42 38 36 34 37 35 35 36 36 38 36 35 32 30 22 27 28 32 33 36 38 38 38 38 37
56 55 52 52 46 49 50 48 33 27 35 29 33 37 36 35 36 37 38 35 31 28 26 34 34 35 37 35 36 35 32 23 24 20 24 26 27 35 37 39 41 40 39 38 37
55 55 52 49 49 50 48 37 24 26 27 35 34 35 35 37 34 34 35 30 33 31 23 27 27 34 36 34 34 33 32 26 22 22 27 28 27 38 37 38 40 40 38 38 37
55 48 45 45 48 50 44 26 31 28 35 33 35 31 31 35 34 33 32 31 35 34 32 27 27 33 36 35 35 33 30 33 25 13 20 27 33 38 35 37 37 38 37 37 37
48 45 42 46 47 48 34 31 29 35 37 35 32 33 25 30 31 31 31 35 36 36 34 35 27 32 34 35 35 33 36 29 26 19 20 27 29 35 35 36 36 36 36 37 37
47 39 42 46 46 39 29 27 29 36 40 37 33 26 31 30 29 29 31 34 34 33 34 34 32 28 32 30 30 31 29 30 31 29 26 25 32 36 38 38 38 37 38 38 38
42 32 43 47 32 31 27 25 38 35 37 37 36 34 32 31 29 28 32 32 36 36 35 35 32 22 26 29 32 31 31 32 28 27 25 27 31 38 39 39 39 39 39 39 38
35 31 39 41 29 26 24 23 32 34 35 36 34 36 35 33 29 32 31 34 35 36 35 36 26 17 24 28 30 30 32 33 31 30 26 24 33 37 35 35 38 39 38 38 38
34 28 31 33 32 31 24 30 28 35 37 38 36 36 34 30 28 28 31 33 36 35 43 41 31 29 29 30 29 28 30 31 33 24 27 28 33 37 38 37 38 38 39 37 37
33 30 33 27 30 30 35 31 34 28 35 37 34 36 35 27 29 25 29 31 34 39 33 33 24 23 27 27 30 31 30 31 31 32 34 34 32 38 40 39 40 40 38 36 36
32 31 31 30 35 32 34 31 35 34 33 32 33 37 36 31 37 31 32 32 34 31 32 32 19 18 18 24 26 29 31 31 31 31 31 29 33 39 40 36 38 40 38 37 37
39 39 40 36 33 30 31 35 35 41 36 38 38 35 33 36 36 34 34 34 34 32 27 25 17 20 19 13 19 24 28 30 29 31 33 33 40 37 37 38 38 39 38 38 38
MSLP
1019.72 1019.79 1019.60 1019.41 1019.21 1019.08 1018.84 1018.56 1018.31 1018.10 1017.86 1017.57 1017.17 1016.93 1016.63 1016.23 1015.72 1015.71 1016.51 1016.88 1016.33 1015.78 1015.51 1015.51 1015.44 1015.75 1016.12 1017.64 1018.30 1018.67 1020.39 1022.59 1023.00 1023.20 1023.29 1023.36 1023.46 1023.43 1023.48 1023.41 1023.11 1022.80 1022.55 1021.56 1021.06
1019.61 1019.60 1019.65 1019.46 1019.23 1019.04 1018.85 1018.56 1018.27 1018.07 1017.83 1017.53 1017.24 1016.98 1016.70 1016.40 1016.25 1016.42 1016.70 1016.29 1015.87 1015.67 1015.58 1015.64 1016.03 1016.20 1017.58 1018.68 1019.26 1019.82 1021.51 1022.77 1023.00 1023.01 1023.15 1023.32 1023.54 1023.67 1023.60 1023.53 1023.07 1022.77 1022.12 1021.63 1021.37
1019.40 1019.52 1019.55 1019.49 1019.30 1018.97 1018.79 1018.55 1018.22 1017.94 1017.79 1017.50 1017.21 1016.89 1016.64 1016.41 1016.54 1016.88 1016.52 1016.09 1015.64 1015.51 1015.81 1015.83 1016.24 1016.81 1018.59 1019.54 1020.51 1021.14 1022.33 1022.86 1023.06 1023.09 1023.12 1023.39 1023.53 1023.65 1023.64 1023.53 1023.42 1023.14 1022.00 1021.29 1021.08
1019.27 1019.35 1019.36 1019.31 1019.29 1018.98 1018.68 1018.46 1018.19 1017.88 1017.66 1017.47 1017.20 1016.75 1016.42 1016.48 1017.12 1016.86 1016.51 1016.04 1015.51 1015.53 1015.80 1016.09 1016.61 1017.92 1019.58 1020.57 1021.03 1021.92 1022.89 1022.83 1023.07 1023.08 1023.11 1023.31 1023.42 1023.55 1023.66 1023.56 1023.50 1023.03 1022.57 1021.71 1021.10
1019.07 1019.14 1019.19 1019.13 1019.15 1019.01 1018.65 1018.38 1018.06 1017.90 1017.58 1017.40 1017.15 1016.82 1016.43 1016.73 1017.38 1016.89 1016.58 1016.05 1015.62 1015.68 1016.40 1016.57 1017.15 1018.46 1020.04 1020.84 1021.31 1022.08 1022.89 1022.95 1023.04 1022.97 1023.03 1023.15 1023.35 1023.57 1023.52 1023.53 1023.35 1022.88 1022.23 1021.73 1021.25
1018.73 1018.87 1019.07 1019.08 1018.99 1018.90 1018.68 1018.31 1017.93 1017.83 1017.57 1017.31 1017.06 1016.76 1016.70 1017.06 1017.26 1017.17 1016.77 1016.30 1016.11 1016.07 1016.85 1016.87 1017.28 1018.08 1019.85 1021.24 1021.63 1022.39 1022.77 1023.03 1022.96 1022.80 1022.77 1022.97 1023.25 1023.46 1023.58 1023.41 1023.14 1022.79 1022.25 1021.69 1021.21
1018.32 1018.62 1018.77 1018.91 1018.89 1018.77 1018.51 1018.23 1017.89 1017.68 1017.55 1017.24 1017.03 1017.03 1016.89 1017.31 1017.19 1017.08 1016.88 1016.71 1016.57 1016.46 1017.04 1017.29 1017.39 1018.01 1019.86 1021.54 1022.26 1022.56 1023.22 1023.18 1023.09 1022.86 1022.86 1022.91 1023.33 1023.44 1023.75 1023.39 1023.18 1022.96 1022.36 1021.73 1021.16
1018.02 1018.33 1018.41 1018.59 1018.70 1018.57 1018.41 1018.05 1017.77 1017.54 1017.26 1017.19 1017.00 1016.99 1017.20 1017.00 1017.05 1017.04 1017.12 1016.95 1016.81 1016.61 1017.11 1017.55 1017.71 1018.64 1020.24 1021.66 1022.71 1023.24 1023.64 1023.73 1023.33 1023.02 1022.83 1022.94 1023.14 1023.16 1023.53 1023.60 1023.42 1023.19 1022.79 1021.96 1021.19
1017.72 1017.83 1018.13 1018.26 1018.45 1018.44 1018.19 1017.84 1017.54 1017.26 1016.95 1017.08 1017.17 1016.98 1017.23 1017.05 1017.13 1017.35 1017.39 1017.36 1017.16 1017.14 1017.45 1017.68 1018.32 1020.31 1021.30 1022.37 1023.87 1024.43 1024.42 1024.39 1023.85 1023.48 1023.34 1023.31 1023.14 1022.94 1023.34 1023.71 1023.74 1023.57 1023.20 1022.61 1021.66
1017.33 1017.51 1017.79 1018.02 1018.22 1018.18 1017.91 1017.50 1017.17 1017.08 1016.83 1017.06 1017.27 1017.51 1017.39 1017.56 1017.37 1017.46 1017.50 1017.39 1017.29 1017.50 1017.92 1018.58 1019.80 1021.20 1022.51 1023.14 1024.23 1024.64 1024.95 1024.81 1024.23 1023.93 1023.70 1023.61 1023.30 1023.11 1023.01 1023.52 1023.81 1023.79 1023.52 1023.01 1022.25
1016.91 1017.28 1017.40 1017.76 1017.99 1017.93 1017.85 1017.53 1017.83 1017.78 1017.32 1017.55 1017.92 1017.61 1017.66 1017.62 1017.44 1017.55 1017.74 1017.58 1017.54 1018.11 1019.27 1020.11 1021.23 1022.37 1023.30 1023.45 1023.84 1024.31 1024.66 1025.04 1024.54 1024.29 1024.47 1024.32 1023.93 1023.13 1022.77 1023.22 1023.54 1023.74 1023.64 1023.36 1022.73
1016.41 1016.84 1017.16 1017.60 1017.88 1017.79 1017.88 1017.94 1017.58 1017.76 1017.89 1017.70 1017.83 1017.80 1017.91 1017.69 1017.79 1017.67 1017.71 1018.03 1018.29 1019.24 1020.06 1021.06 1022.43 1023.20 1023.31 1023.57 1023.80 1024.39 1024.88 1025.11 1024.82 1024.54 1024.72 1024.47 1023.85 1022.95 1022.73 1023.07 1023.44 1023.68 1023.71 1023.70 1023.09
1015.44 1016.43 1016.87 1017.40 1017.81 1017.88 1017.82 1017.48 1017.54 1017.21 1017.99 1017.82 1017.77 1017.76 1018.01 1017.84 1018.09 1018.12 1017.95 1018.12 1019.15 1019.94 1020.93 1021.70 1022.93 1023.25 1023.24 1023.57 1023.71 1024.31 1024.53 1024.76 1024.78 1024.57 1024.56 1024.43 1023.91 1023.12 1022.54 1022.75 1022.99 1023.08 1023.52 1023.93 1023.90
1014.69 1015.57 1016.44 1017.27 1018.23 1017.68 1017.51 1017.10 1017.57 1016.83 1018.05 1017.83 1018.01 1017.74 1017.87 1017.85 1018.33 1018.28 1018.08 1018.40 1019.56 1020.83 1021.57 1022.50 1023.03 1023.13 1023.13 1023.33 1023.37 1023.88 1024.10 1024.32 1024.63 1024.92 1024.82 1024.50 1024.19 1023.06 1022.61 1022.65 1022.58 1022.69 1023.53 1024.04 1024.10
1013.88 1014.86 1015.98 1016.60 1016.51 1017.15 1016.92 1016.77 1016.88 1016.99 1018.64 1017.91 1018.03 1017.98 1017.83 1018.31 1018.35 1018.42 1018.25 1018.35 1019.80 1020.83 1021.56 1022.91 1023.02 1022.99 1023.05 1022.96 1023.05 1023.60 1023.89 1024.17 1024.56 1024.99 1025.17 1024.80 1024.67 1022.58 1022.59 1022.38 1022.05 1022.48 1023.38 1023.95 1024.24
1012.94 1014.20 1015.47 1016.64 1016.73 1016.32 1016.35 1016.74 1017.39 1018.73 1018.45 1018.11 1018.13 1018.08 1018.29 1018.47 1018.51 1018.52 1018.48 1018.82 1020.14 1020.93 1021.77 1022.71 1022.76 1022.73 1022.86 1023.03 1023.11 1023.43 1024.01 1024.47 1024.85 1025.06 1025.52 1024.82 1024.51 1022.67 1022.30 1022.08 1022.05 1022.25 1022.97 1023.65 1024.03
1012.24 1013.32 1014.70 1015.87 1015.85 1016.07 1015.83 1017.00 1018.54 1018.87 1017.91 1018.38 1018.31 1018.19 1018.40 1018.73 1018.84 1018.71 1018.90 1019.48 1020.44 1021.42 1022.75 1023.09 1023.04 1022.84 1022.82 1023.19 1023.45 1023.51 1023.95 1024.75 1025.38 1025.48 1025.21 1024.64 1024.29 1021.38 1020.80 1020.86 1021.27 1022.01 1022.55 1023.06 1023.59
1011.59 1012.60 1014.03 1015.18 1015.09 1015.54 1015.38 1017.94 1018.78 1017.67 1018.01 1017.87 1018.34 1018.66 1018.77 1018.68 1019.03 1019.27 1019.40 1019.88 1020.15 1020.48 1022.13 1022.85 1023.43 1022.90 1022.86 1022.93 1022.99 1023.50 1023.57 1023.91 1025.03 1025.71 1024.94 1024.34 1022.95 1020.64 1020.48 1020.81 1020.95 1021.48 1022.20 1022.88 1023.34
1011.08 1012.69 1014.27 1014.65 1015.29 1015.47 1015.89 1018.33 1016.88 1017.09 1017.01 1017.62 1018.50 1019.02 1019.20 1018.80 1018.55 1019.41 1019.63 1019.70 1019.36 1019.87 1020.02 1021.59 1022.84 1023.06 1023.13 1023.04 1023.26 1023.61 1023.73 1023.50 1024.37 1026.01 1024.96 1022.98 1021.45 1020.15 1020.40 1020.79 1021.16 1021.55 1022.28 1022.81 1023.32
1010.57 1012.17 1014.15 1013.90 1015.53 1015.20 1017.21 1017.30 1016.86 1016.30 1016.33 1017.07 1016.94 1017.74 1018.67 1018.74 1018.78 1019.27 1019.47 1018.67 1018.86 1019.16 1019.02 1020.18 1022.38 1023.41 1023.47 1023.30 1023.39 1023.30 1023.37 1023.72 1024.04 1024.99 1024.48 1022.39 1021.16 1019.70 1020.02 1020.33 1021.30 1021.83 1022.09 1022.50 1023.11
1010.59 1012.53 1013.89 1014.20 1015.36 1015.86 1016.81 1016.83 1016.33 1015.88 1015.55 1016.33 1016.78 1017.28 1017.94 1018.17 1018.56 1018.96 1018.86 1018.52 1018.45 1019.27 1019.21 1019.83 1020.76 1023.95 1023.84 1023.41 1023.20 1023.62 1023.33 1023.48 1023.44 1023.64 1023.51 1022.30 1019.90 1018.23 1018.85 1019.62 1020.06 1020.57 1021.21 1022.11 1022.80
1009.83 1012.66 1014.32 1014.12 1016.06 1016.59 1016.73 1016.41 1015.72 1015.70 1015.87 1016.04 1015.96 1016.32 1017.10 1017.55 1018.11 1018.74 1018.28 1017.96 1017.87 1018.54 1019.28 1019.41 1020.93 1023.21 1023.46 1023.27 1023.13 1022.95 1022.73 1022.55 1022.77 1023.60 1023.19 1022.62 1019.34 1017.96 1018.17 1018.41 1019.19 1019.90 1020.41 1020.77 1021.36
1009.74 1013.38 1014.44 1014.76 1014.38 1015.86 1016.67 1016.17 1015.72 1015.68 1015.44 1015.62 1015.50 1015.87 1016.53 1016.89 1017.92 1018.20 1018.08 1018.09 1018.00 1018.51 1018.41 1018.99 1020.80 1022.92 1023.88 1023.98 1023.48 1023.04 1022.36 1022.13 1022.07 1022.26 1022.39 1021.69 1019.00 1018.02 1018.50 1019.09 1019.39 1019.81 1020.10 1020.87 1021.50
1009.75 1012.86 1014.94 1014.72 1013.73 1014.03 1015.12 1015.11 1015.24 1014.96 1014.79 1014.89 1015.27 1015.70 1016.13 1016.88 1017.56 1018.10 1018.38 1018.49 1018.35 1018.67 1018.68 1018.73 1020.10 1020.92 1021.65 1021.32 1021.28 1022.18 1021.69 1021.72 1021.47 1022.00 1021.46 1020.17 1018.51 1017.93 1018.15 1018.54 1018.87 1019.21 1019.42 1020.06 1020.50
1007.58 1010.23 1010.60 1012.17 1012.67 1012.87 1013.14 1013.49 1013.97 1014.39 1014.66 1014.57 1015.18 1014.94 1015.14 1016.86 1017.41 1017.95 1018.16 1018.86 1018.92 1019.00 1019.35 1019.77 1021.32 1021.81 1022.21 1021.99 1021.44 1021.01 1020.92 1020.83 1020.76 1020.04 1019.71 1018.37 1018.27 1016.90 1017.09 1017.40 1017.70 1018.43 1019.30 1019.87 1020.40
1005.25 1007.56 1009.80 1009.53 1011.01 1012.26 1012.05 1012.00 1012.09 1012.94 1013.22 1013.75 1013.91 1014.25 1015.27 1016.09 1015.86 1016.54 1017.05 1017.81 1017.99 1019.67 1020.10 1020.57 1022.26 1022.84 1023.52 1022.97 1022.05 1021.05 1020.44 1020.35 1020.15 1019.59 1018.90 1018.34 1017.46 1015.77 1015.98 1016.74 1017.54 1018.06 1018.62 1019.24 1019.53
1003.66 1004.76 1005.11 1008.30 1009.99 1010.93 1009.85 1009.68 1010.00 1011.06 1012.45 1012.47 1013.24 1014.23 1015.71 1016.09 1016.05 1016.31 1016.62 1016.72 1017.20 1018.24 1020.15 1021.19 1022.50 1023.58 1024.42 1023.53 1022.30 1021.11 1018.63 1019.02 1018.83 1018.19 1017.57 1017.45 1015.43 1015.32 1015.56 1016.17 1016.69 1017.31 1017.74 1018.33 1018.83
Wind_Speed
7 8 8 8 9 10 11 12 13 13 13 13 13 13 13 15 7 5 6 4 8 15 9 4 4 4 5 6 6 2 6 3 4 5 4 1 1 1 2 2 2 2 4 9 15
8 7 9 8 9 10 11 12 12 14 14 14 13 12 11 11 2 8 1 12 12 10 4 4 3 5 6 5 5 7 5 3 2 4 4 2 1 2 3 4 3 5 8 10 12
8 8 8 9 9 9 11 12 12 13 14 14 13 13 12 5 2 2 11 15 12 4 1 2 4 5 7 5 6 4 5 5 1 2 3 3 1 1 3 2 3 11 18 17 12
9 9 8 8 10 10 10 12 12 12 13 13 13 13 12 1 2 2 15 14 8 5 2 3 5 6 6 5 3 9 3 3 4 3 2 2 2 1 0 3 6 11 13 13 14
9 10 9 7 9 10 10 11 12 13 13 12 13 13 3 4 1 5 14 10 4 5 5 3 5 5 7 6 4 8 3 4 4 4 3 2 0 1 3 5 8 10 10 11 12
8 9 6 6 7 9 11 11 11 13 13 11 12 11 1 2 3 7 8 5 6 6 5 5 5 6 9 4 5 4 6 5 2 1 2 2 1 2 2 6 9 10 11 10 10
10 9 7 6 7 9 10 11 12 12 12 11 9 3 4 2 2 6 6 3 3 3 4 3 4 5 7 6 3 5 6 2 4 3 1 1 0 2 4 7 8 9 10 11 11
12 10 9 8 7 8 10 11 12 12 11 8 7 1 1 1 1 4 6 3 5 5 6 4 7 10 6 6 6 5 5 2 3 5 0 1 4 1 4 7 11 12 12 13 15
12 11 9 7 6 8 10 12 13 10 7 7 1 2 1 3 3 3 3 2 2 4 6 4 6 6 4 6 5 6 3 2 2 2 3 2 3 3 2 5 9 9 10 12 16
13 12 10 8 5 6 11 12 7 5 2 1 1 3 1 2 1 2 2 2 4 3 4 8 6 5 5 5 5 6 4 0 2 3 4 3 4 5 1 3 7 8 8 9 12
14 12 10 9 5 3 5 3 4 3 7 2 1 1 1 2 1 4 2 1 2 8 4 5 8 3 2 1 4 7 5 3 3 1 4 3 5 8 3 2 7 7 8 9 10
16 14 12 10 6 3 3 3 3 3 0 1 1 1 1 1 2 2 2 3 3 4 1 7 4 3 6 3 6 5 4 2 4 2 3 3 8 6 4 3 3 5 7 8 11
19 15 14 11 8 3 3 5 1 4 1 2 2 3 2 1 1 1 2 3 5 5 3 7 4 6 3 2 4 3 5 3 3 3 2 4 6 6 2 2 3 5 2 4 7
22 20 17 14 5 4 3 2 4 3 6 4 3 3 2 3 1 2 2 3 5 6 5 6 4 3 3 2 2 3 2 3 3 3 2 4 5 5 4 8 5 6 4 5 7
24 21 20 17 7 5 4 6 3 3 1 1 3 1 2 5 5 3 1 4 6 5 5 3 7 4 2 2 2 5 4 4 3 3 2 5 3 8 4 5 6 4 3 4 5
26 24 20 3 1 4 7 5 4 8 12 3 3 5 5 1 1 3 3 7 4 6 7 3 1 1 3 2 2 6 5 4 4 2 3 1 4 6 3 5 4 3 1 3 4
28 28 19 6 6 6 7 4 7 6 4 5 6 6 3 5 3 2 5 6 6 7 1 3 0 1 2 5 2 2 4 3 5 5 5 1 1 9 5 7 6 5 5 4 4
29 27 12 3 6 11 5 7 5 4 7 3 3 4 7 7 1 2 6 4 3 3 6 8 3 6 3 2 6 5 4 6 6 3 3 2 6 5 5 2 4 4 3 4 5
30 7 7 5 6 6 10 5 14 9 7 10 4 4 3 3 7 4 7 6 9 10 8 7 2 2 1 1 1 4 3 3 8 3 3 3 7 6 2 6 5 6 4 7 6
10 9 6 9 4 4 9 16 7 5 8 3 9 5 9 8 6 7 9 6 6 8 2 7 7 1 0 1 2 3 4 4 3 3 3 5 5 6 6 9 6 8 9 8 6
7 6 7 8 0 7 12 9 6 5 5 8 6 5 5 9 7 7 9 1 4 6 1 6 6 3 1 6 8 2 2 4 4 3 5 1 8 6 7 8 11 12 10 8 7
5 5 8 10 7 3 8 9 5 6 3 6 4 4 8 6 7 5 10 3 8 9 10 6 7 5 3 1 1 2 5 5 5 5 3 1 8 3 8 8 8 8 9 9 10
8 5 3 5 9 8 1 4 5 6 7 7 5 3 2 6 5 5 5 1 6 7 10 9 1 5 8 5 4 5 6 4 3 4 5 6 7 2 3 4 7 7 7 7 7
6 7 2 2 1 10 9 11 6 2 5 4 5 3 4 3 3 7 4 1 3 3 1 4 3 7 9 6 6 7 7 6 5 5 6 8 5 5 8 9 7 8 7 8 10
5 5 6 13 13 9 18 13 18 8 3 5 2 5 7 4 3 3 2 3 3 3 2 4 5 3 3 3 0 5 7 13 10 5 8 4 9 7 9 11 9 8 6 7 9
10 8 4 3 13 15 21 16 25 12 12 8 5 9 5 4 5 10 9 5 7 3 5 0 3 3 3 5 4 3 5 10 6 3 8 2 10 10 5 2 5 8 8 9 10
1 2 11 15 15 13 18 19 24 19 4 3 9 7 5 1 2 3 4 6 6 11 8 6 8 4 5 3 3 6 13 12 6 6 9 9 11 4 5 7 7 8 9 10 10
Wind_Direction
291 312 325 333 341 344 347 349 348 348 347 344 347 346 346 343 350 41 48 281 320 320 328 280 41 30 42 62 37 111 68 108 154 160 179 289 130 23 288 295 316 225 235 261 310
283 295 311 323 332 338 340 344 346 344 343 342 341 341 341 340 41 56 269 336 336 335 19 44 46 45 56 38 22 63 81 130 197 171 170 161 135 290 14 339 283 287 274 288 307
272 281 295 313 322 331 335 338 342 344 340 339 337 335 333 331 97 340 341 337 342 350 150 88 85 69 65 35 0 31 112 162 181 166 136 126 96 357 328 323 244 301 311 317 329
266 273 283 296 313 321 329 333 337 340 339 336 334 331 326 312 193 306 337 336 5 96 95 70 44 59 70 58 347 95 90 134 155 134 126 151 148 197 268 251 308 289 296 307 329
235 265 275 279 302 311 320 328 334 334 335 334 333 330 348 52 5 326 334 342 51 70 52 88 72 112 103 111 73 76 132 75 107 111 100 136 73 281 260 318 309 311 324 329 324
220 254 257 270 293 306 314 323 330 330 329 329 334 331 352 118 309 328 331 350 40 65 25 34 133 126 88 68 74 118 104 126 83 155 114 83 251 346 320 329 324 341 327 316 324
210 223 220 257 285 299 311 317 323 324 321 322 335 11 54 142 327 327 360 12 1 76 84 20 130 75 134 92 159 121 92 110 21 330 127 172 170 287 318 322 320 337 329 328 339
206 212 216 246 273 295 303 311 315 314 313 312 328 19 106 263 249 24 340 30 15 56 92 118 89 94 76 120 41 67 56 84 328 360 69 131 271 233 343 350 335 347 341 341 343
206 205 212 207 254 290 301 306 306 303 302 309 354 89 199 309 63 317 23 65 350 58 52 70 63 83 54 88 43 12 162 77 300 57 312 12 262 234 19 354 331 339 341 345 337
201 201 199 196 233 290 302 300 290 324 9 75 60 39 59 195 336 349 347 25 100 108 43 41 52 80 47 71 199 189 121 86 211 319 14 341 262 290 331 350 323 329 332 340 341
200 198 190 190 205 293 359 33 31 350 50 133 337 92 108 295 255 31 354 31 91 52 67 18 69 97 130 134 92 108 98 122 256 327 5 324 281 280 283 313 326 328 339 338 334
194 190 182 187 184 136 97 132 163 145 46 100 161 39 284 266 106 10 346 110 68 100 68 29 95 172 128 95 93 79 101 296 296 297 112 336 290 275 262 251 237 302 325 330 329
184 187 177 173 158 111 168 178 170 139 112 216 191 168 202 141 169 163 25 114 99 74 17 122 169 150 109 122 96 58 122 187 186 360 270 318 308 322 312 258 229 259 292 336 325
180 176 171 159 172 175 212 114 190 152 53 238 222 223 142 143 60 297 28 119 48 135 114 101 153 158 127 125 142 111 157 121 82 71 228 360 269 294 309 307 274 281 333 336 336
176 172 167 173 139 169 160 154 171 56 283 130 173 176 147 162 132 358 20 44 125 127 121 172 156 155 161 178 194 161 148 132 99 81 328 1 58 271 10 316 286 286 313 335 331
169 165 159 139 300 168 147 140 61 61 241 173 142 172 118 50 29 141 91 55 131 86 44 107 197 105 145 81 55 131 88 53 62 76 24 288 125 281 219 208 297 291 283 310 324
169 162 154 159 187 184 143 68 64 190 8 225 192 167 163 155 126 152 148 137 151 98 52 22 27 320 137 90 26 99 101 15 2 12 213 148 358 241 226 195 193 255 268 253 284
167 161 152 173 144 172 91 60 146 216 213 150 100 115 180 164 117 131 122 151 248 94 117 147 252 172 176 212 175 180 178 150 194 193 248 94 242 257 234 270 212 208 241 278 287
163 132 146 148 186 241 118 197 200 195 165 147 99 121 216 203 130 154 184 196 199 192 134 136 8 45 63 134 99 177 191 148 105 47 40 229 280 285 241 259 233 240 249 258 270
152 133 161 138 241 171 134 206 209 188 129 175 170 161 181 187 135 174 171 203 193 191 236 194 103 49 309 128 31 187 157 82 4 118 273 273 269 239 216 238 225 243 234 246 247
134 127 150 137 88 123 194 215 209 210 142 156 182 144 183 175 152 190 190 239 145 170 113 148 105 245 108 202 180 149 221 51 113 136 174 233 260 213 188 191 201 216 217 220 238
112 119 175 155 140 171 203 187 171 169 145 210 154 123 174 158 150 198 195 214 158 158 162 201 121 139 195 241 258 222 213 174 126 203 168 159 274 172 194 195 188 213 215 197 193
119 109 335 234 164 191 242 234 184 146 178 182 183 183 184 156 131 187 197 61 147 169 162 184 275 80 352 352 353 227 197 178 105 83 198 135 261 178 268 259 240 218 225 207 206
123 122 163 223 32 160 156 193 187 246 152 165 136 133 127 103 360 165 140 158 147 210 47 83 132 155 179 186 135 188 186 182 150 127 172 225 265 251 220 224 231 219 210 199 196
141 170 191 176 203 185 183 162 186 171 234 187 171 208 146 121 95 158 120 113 60 174 61 131 152 87 74 23 318 169 181 181 194 182 167 238 205 234 221 210 206 207 194 192 204
137 154 145 166 151 172 185 191 190 183 157 216 178 169 135 162 196 186 142 186 180 138 163 239 180 117 354 348 3 233 200 201 225 237 283 251 275 218 184 175 206 217 208 207 207
106 77 133 156 164 164 200 193 201 181 218 183 148 105 130 250 47 356 78 88 135 148 158 143 137 113 240 350 357 330 207 187 194 215 150 196 227 186 190 198 212 206 194 206 216